Location: São Paulo
(23.5507°S, 46.6334°W)
Time: 07:23:21
(UTC-03:00)

Vanguard 3 - Pass Details

Date: 16 February 2026
Orbit: 507 x 3205 km, 33.4° (Epoch: 7 March)

Event Time Altitude Azimuth Distance (km) Brightness Sun altitude
Exits shadow 03:51:02 48° 297° (WNW) 2,055 8.6 -27.3°
Maximum altitude 03:54:41 90° 36° (NE) 1,894 8.8 -26.6°
Drops below altitude 10° 04:10:30 10° 115° (ESE) 5,599 12.5 -23.4°
Sets 04:15:34 0° 114° (ESE) 6,884 13.4 -22.3°
